Tracking 20712 objects as of 29-May-2020
HD Live streaming from Space Station
objects crossing your sky now

FENGYUN 1C DEB

Track FENGYUN 1C DEB now!
10-day predictions


NORAD ID: 37038
Int'l Code: 1999-025EDW
Perigee: 770.6 km
Apogee: 854.5 km
Inclination: 99.0 °
Period: 101.0 minutes
Semi major axis: 7183 km
RCS: 0.0074 m2 (small)
Launch date: May 10, 1999
Source: People's Republic of China (PRC)
Launch site: Taiyaun Space Center, China (TSC)

Note: This is SATELLITE DEBRIS
aabbcc
Your satellite tracking list
Your tracking list is empty




NASA's NSSDC Master Catalog

Two Line Element Set (TLE):
1 37038U 99025EDW 20129.06202349  .00001136  00000-0  48771-3 0  9997
2 37038  99.0403 255.0814 0058411  16.6583 343.6497 14.25925754624496
Source of the keplerian elements: AFSPC